Location: Ca�n Batista
(41.4099°N, 1.7752°E)
Time: 13:33:38
(UTC+00:00)

Meteor 2-4 Rocket - Pass Details

Date: 03 March 2021
Orbit: 799 x 908 km, 81.2° (Epoch: 21 April)

Event Time Altitude Azimuth Distance (km) Brightness Sun altitude
Rises 18:46:54 0° 354° (N) 3,494 7.0 -12.2°
Reaches altitude 10° 18:49:24 10° 359° (N) 2,564 6.3 -12.7°
Maximum altitude 18:55:09 56° 77° (ENE) 1,066 3.9 -13.7°
Drops below altitude 10° 19:00:57 10° 155° (SSE) 2,584 5.9 -14.8°
Sets 19:03:28 0° 160° (SSE) 3,522 6.7 -15.3°
